| time (UTC) | temp F | wind direction | speed MPH | gust MPH | rain 1hr in | rain 24hr in | rain mn in | humidity % | barometer mb |
| 20260503000049 | 57 | 170 | 2.0 | 8.0 | 0.00 | 0.00 | 0.00 | 78 | 1011.9 |
| 20260502234554 | 58 | 144 | 4.0 | 10.0 | 0.00 | 0.00 | 0.00 | 77 | 1011.9 |
| 20260502233042 | 59 | 184 | 3.0 | 8.0 | 0.00 | 0.00 | 0.00 | 76 | 1012.2 |
| 20260502231542 | 60 | 212 | 2.0 | 9.0 | 0.00 | 0.00 | 0.00 | 77 | 1012.3 |
| 20260502230042 | 60 | 233 | 2.0 | 6.0 | 0.00 | 0.00 | 0.00 | 76 | 1012.4 |
| 20260502224539 | 59 | 171 | 0.0 | 5.0 | 0.00 | 0.00 | 0.00 | 77 | 1012.5 |
| 20260502223041 | 59 | 101 | 0.0 | 7.0 | 0.00 | 0.00 | 0.00 | 80 | 1012.7 |
| 20260502221535 | 58 | 148 | 0.0 | 5.0 | 0.00 | 0.00 | 0.00 | 81 | 1012.9 |
| 20260502220039 | 58 | 171 | 1.0 | 7.0 | 0.00 | 0.00 | 0.00 | 82 | 1013.0 |
| 20260502214535 | 57 | 217 | 0.0 | 7.0 | 0.00 | 0.00 | 0.00 | 83 | 1013.2 |
| 20260502213028 | 57 | 215 | 0.0 | 4.0 | 0.00 | 0.00 | 0.00 | 84 | 1013.2 |
| 20260502211533 | 56 | 124 | 0.0 | 4.0 | 0.00 | 0.00 | 0.00 | 85 | 1013.4 |
| 20260502210027 | 56 | 179 | 0.0 | 4.0 | 0.00 | 0.00 | 0.00 | 85 | 1013.5 |
| 20260502204535 | 56 | 175 | 0.0 | 4.0 | 0.00 | 0.00 | 0.00 | 85 | 1013.5 |
| 20260502203024 | 54 | 254 | 0.0 | 5.0 | 0.00 | 0.00 | 0.00 | 85 | 1013.6 |
| 20260502201520 | 53 | 184 | 0.0 | 3.0 | 0.00 | 0.00 | 0.00 | 86 | 1013.7 |
| 20260502200020 | 52 | 186 | 0.0 | 6.0 | 0.00 | 0.00 | 0.00 | 86 | 1013.7 |
| 20260502194526 | 53 | 253 | 0.0 | 5.0 | 0.00 | 0.00 | 0.00 | 86 | 1013.8 |
| 20260502193017 | 53 | 229 | 0.0 | 3.0 | 0.00 | 0.00 | 0.00 | 86 | 1014.0 |
| 20260502191518 | 54 | 208 | 0.0 | 0.0 | 0.00 | 0.00 | 0.00 | 86 | 1014.0 |
| 20260502190020 | 54 | 209 | 0.0 | 3.0 | 0.00 | 0.00 | 0.00 | 86 | 1014.0 |
| 20260502184515 | 53 | 216 | 0.0 | 0.0 | 0.00 | 0.00 | 0.00 | 85 | 1014.0 |
| 20260502183014 | 52 | 216 | 0.0 | 0.0 | 0.00 | 0.00 | 0.00 | 86 | 1013.9 |
| 20260502181512 | 51 | 189 | 0.0 | 0.0 | 0.00 | 0.00 | 0.00 | 86 | 1013.8 |
| 20260502163019 | 53 | 290 | 0.0 | 0.0 | 0.00 | 0.00 | 0.00 | 93 | 1013.6 |
| 20260502161515 | 53 | 290 | 0.0 | 0.0 | 0.00 | 0.00 | 0.00 | 93 | 1013.6 |
| 20260502151600 | 53 | 175 | 0.0 | 0.0 | 0.00 | 0.00 | 0.00 | 93 | 1013.1 |
| 20260502130105 | 52 | 207 | 0.0 | 0.0 | 0.00 | 0.00 | 0.00 | 94 | 1012.4 |
| 20260502123113 | 52 | 207 | 0.0 | 0.0 | 0.00 | 0.00 | 0.00 | 94 | 1012.5 |
| 20260502121556 | 52 | 207 | 0.0 | 0.0 | 0.00 | 0.00 | 0.00 | 94 | 1012.5 |
| 20260502120109 | 52 | 207 | 0.0 | 0.0 | 0.00 | 0.00 | 0.00 | 94 | 1012.2 |
| 20260502114550 | 52 | 207 | 0.0 | 0.0 | 0.00 | 0.00 | 0.00 | 94 | 1012.4 |
| 20260502113052 | 52 | 145 | 0.0 | 0.0 | 0.00 | 0.00 | 0.00 | 93 | 1012.5 |
| 20260502111549 | 52 | 145 | 0.0 | 0.0 | 0.00 | 0.00 | 0.00 | 93 | 1012.3 |
| 20260502110048 | 52 | 145 | 0.0 | 0.0 | 0.00 | 0.00 | 0.00 | 94 | 1012.2 |
| 20260502104546 | 52 | 145 | 0.0 | 0.0 | 0.00 | 0.00 | 0.00 | 94 | 1012.4 |
| 20260502103046 | 52 | 145 | 0.0 | 0.0 | 0.00 | 0.00 | 0.00 | 93 | 1012.5 |
| 20260502101546 | 52 | 145 | 0.0 | 0.0 | 0.00 | 0.00 | 0.00 | 93 | 1012.4 |
| 20260502100149 | 52 | 145 | 0.0 | 0.0 | 0.00 | 0.00 | 0.00 | 93 | 1012.4 |
| 20260502071516 | 50 | 145 | 0.0 | 0.0 | 0.00 | 0.00 | 0.00 | 92 | 1013.1 |
| 20260502070017 | 50 | 196 | 0.0 | 0.0 | 0.00 | 0.00 | 0.00 | 92 | 1013.1 |
| 20260502064512 | 50 | 196 | 0.0 | 0.0 | 0.00 | 0.00 | 0.00 | 91 | 1013.1 |
| 20260502063012 | 50 | 196 | 0.0 | 0.0 | 0.00 | 0.00 | 0.00 | 91 | 1013.1 |
| 20260502061511 | 49 | 196 | 0.0 | 0.0 | 0.00 | 0.00 | 0.00 | 91 | 1013.1 |
| 20260502060012 | 49 | 196 | 0.0 | 0.0 | 0.00 | 0.00 | 0.00 | 90 | 1013.3 |
| 20260502054510 | 48 | 196 | 0.0 | 0.0 | 0.00 | 0.00 | 0.00 | 90 | 1013.3 |
| 20260502053010 | 48 | 194 | 0.0 | 0.0 | 0.00 | 0.00 | 0.00 | 89 | 1013.1 |
| 20260502051508 | 48 | 194 | 0.0 | 3.0 | 0.00 | 0.00 | 0.00 | 88 | 1013.2 |
| 20260502050011 | 48 | 214 | 0.0 | 0.0 | 0.00 | 0.00 | 0.00 | 88 | 1013.3 |
| 20260502044507 | 48 | 206 | 0.0 | 3.0 | 0.00 | 0.00 | 0.00 | 87 | 1013.2 |
| 20260502043007 | 49 | 193 | 0.0 | 1.0 | 0.00 | 0.00 | 0.00 | 87 | 1013.1 |
| 20260502041507 | 50 | 197 | 0.0 | 2.0 | 0.00 | 0.00 | 0.00 | 87 | 1013.0 |
| 20260502040006 | 51 | 214 | 0.0 | 0.0 | 0.00 | 0.00 | 0.00 | 86 | 1012.7 |
| 20260502034505 | 52 | 214 | 0.0 | 4.0 | 0.00 | 0.00 | 0.00 | 86 | 1012.6 |
| 20260502033005 | 53 | 180 | 0.0 | 3.0 | 0.00 | 0.00 | 0.00 | 86 | 1012.5 |
| 20260502031505 | 55 | 234 | 0.0 | 2.0 | 0.00 | 0.00 | 0.00 | 86 | 1012.3 |
| 20260502030005 | 56 | 248 | 0.0 | 2.0 | 0.00 | 0.00 | 0.00 | 85 | 1012.1 |
| 20260502024503 | 57 | 202 | 0.0 | 4.0 | 0.00 | 0.00 | 0.00 | 85 | 1012.0 |
| 20260502023006 | 58 | 182 | 0.0 | 5.0 | 0.00 | 0.00 | 0.00 | 83 | 1012.0 |
| 20260502021503 | 59 | 167 | 1.0 | 7.0 | 0.00 | 0.00 | 0.00 | 81 | 1012.0 |
| 20260502020002 | 60 | 216 | 1.0 | 5.0 | 0.00 | 0.00 | 0.00 | 79 | 1012.1 |
| 20260502014600 | 61 | 201 | 0.0 | 5.0 | 0.00 | 0.00 | 0.00 | 78 | 1012.1 |
| 20260502013103 | 62 | 207 | 1.0 | 6.0 | 0.00 | 0.00 | 0.00 | 75 | 1012.1 |
| 20260502011600 | 63 | 190 | 1.0 | 7.0 | 0.00 | 0.00 | 0.00 | 74 | 1012.1 |
| 20260502010159 | 64 | 250 | 1.0 | 6.0 | 0.00 | 0.00 | 0.00 | 73 | 1012.2 |
| 20260502004557 | 65 | 232 | 1.0 | 7.0 | 0.00 | 0.00 | 0.00 | 72 | 1012.3 |
| 20260502003056 | 66 | 193 | 3.0 | 8.0 | 0.00 | 0.00 | 0.00 | 71 | 1012.4 |
| 20260502001558 | 67 | 226 | 3.0 | 10.0 | 0.00 | 0.00 | 0.00 | 69 | 1012.4 |